Preview of NWS' New Version of Forecast
This preview is not operational and should not be used for support decisions.

Regional Weather Roundup (RWR)

Issued by National Weather Service (NWS)

                            
000
ASUS42 KTBW 211017
RWRFL 
FLORIDA REGIONAL WEATHER ROUNDUP
NATIONAL WEATHER SERVICE TAMPA BAY RUSKIN FL
600 AM EDT SUN APR 21 2019

NOTE: "FAIR" INDICATES FEW OR NO CLOUDS BELOW 12,000 FEET WITH NO
SIGNIFICANT WEATHER AND/OR OBSTRUCTIONS TO VISIBILITY.

FLZ001>010-012>015-112-114-115-211100-
PANHANDLE FLORIDA
  
CITY           SKY/WX    TMP DP  RH WIND       PRES   REMARKS
PENSACOLA      FAIR      52  38  58 N5        30.08R                  
PENSACOLA NAS  FAIR      46  44  93 NW5       30.08R WCI  44          
MILTON NAS     FAIR      41  40  96 CALM      30.09R                  
CRESTVIEW      FAIR      38  36  92 CALM      30.10R                  
DUKE FIELD     FAIR      40  37  87 CALM      30.08R                  
VALPARAISO     FAIR      46  38  74 NW5       30.08R WCI  44          
MARY ESTHER    FAIR      44  39  82 N6        30.07R WCI  41          
PANAMA CITY    FAIR      43  40  89 CALM      30.07R                  
TYNDALL AFB    FAIR      49  42  75 N3        30.08R                  
APALACHICOLA   FAIR      44  39  82 CALM      30.07R                  

STATION/POSITION SKY/WX   TEMP    WIND        PRES    WAVE   SWELL
                          AIR SEA DIR/SP/G            HT/PER HT/PER
                          (F)     (DEG/KT/KT) (MB)    (FT/S) (FT/S)
30.1N   87.6W                                 1018.9R   2/ 6   2/ 6
29.2N   88.2W                      30/  8/ 10 1019.3R   3/ 4   2/ 5
PANAMA CITY BEAC           55 69  330/  9/ 11 1018.9R
TOWER C          NOT AVBL

$$
FLZ011-016>038-118-127-128-134-139-239-211100-
NORTH FLORIDA
  
CITY           SKY/WX    TMP DP  RH WIND       PRES   REMARKS
TALLAHASSEE    FAIR      42  40  92 CALM      30.07R                  
PERRY          FAIR      44  44  97 CALM      30.08R FOG              
LIVE OAK       CLEAR     45  45 100 CALM      30.06R                  
CROSS CITY     FAIR      43  42  95 CALM      30.07R                  
LAKE CITY      FAIR      43  43 100 CALM      30.06R                  
GAINESVILLE    FAIR      48  43  82 SW3       30.08R                  
PALATKA        FAIR     N/A N/A N/A CALM      30.06R                  
MAYPORT NAS    FAIR      57  51  80 W5        30.04R                  
JACKSONVILLE   FAIR      48  46  93 W3        30.04R                  
JAX NAS        FAIR      53  47  79 W6        30.06R                  
JAX CECIL      FAIR      41  41 100 CALM      30.06R                  
FERNANDINA BEA FAIR      50  47  90 CALM      30.05R                  
ST AUGUSTINE   FAIR      53  48  83 W6        30.06R                  
PALM COAST     CLEAR     48  46  93 S3        30.05S                  

STATION/POSITION SKY/WX   TEMP    WIND        PRES    WAVE   SWELL
                          AIR SEA DIR/SP/G            HT/PER HT/PER
                          (F)     (DEG/KT/KT) (MB)    (FT/S) (FT/S)
SHELL POINT      NOT AVBL
KEATON BEACH               50      20/  1/  2 1018.4R
CEDAR KEY                  56     350/  5/  6 1018.0R
FERNANDINA                 58 69   CALM  /  1 1017.9R
30.7N   81.3W                 67                N/A     2/ 9
MAYPORT                    57 69  290/  4/  4 1017.3R
31.4N   80.9W              62 66  320/  8/ 10 1016.7R   3/ 8   2/ 8
ST AUGUSTINE               55 71  260/  5/  6 1017.5R

$$
FLZ040-043>046-052-053-057-058-063-144-211100-
INTERIOR CENTRAL FLORIDA
  
CITY           SKY/WX    TMP DP  RH WIND       PRES   REMARKS
OCALA          FAIR      48  46  93 CALM      30.07R                  
LEESBURG       FAIR      52  49  89 N5        30.07R                  
SANFORD        FAIR      58  52  80 SW6       30.06R                  
ORLANDO EXEC   FAIR      58  51  78 CALM      30.06R                  
ORLANDO INTL   FAIR      53  50  89 SW3       30.07R                  
KISSIMMEE      FAIR      53  51  93 CALM      30.08R                  
WINTER HAVEN   FAIR      57  52  83 S3        30.08R                  
LAKELAND       CLEAR     52  52 100 CALM      30.07S                  
BARTOW         FAIR      50  48  93 CALM      30.07R                  
SEBRING        FAIR      57  54  87 CALM      30.08R                  
OKEECHOBEE     FAIR      55  50  82 CALM      30.07R                  

$$
FLZ041-047-054-059-064-141-147-211100-
EAST CENTRAL FLORIDA
  
CITY           SKY/WX    TMP DP  RH WIND       PRES   REMARKS
DAYTONA BEACH  FAIR      54  51  90 CALM      30.06R                  
DELAND         FAIR      52  50  93 CALM      30.06R                  
JFK SPACE CTR  FAIR      53  50  88 CALM      30.05R                  
CAPE CANAVERAL FAIR      60  52  76 W8        30.05R                  
PATRICK AFB    FAIR      60  54  78 W13       30.06R                  
MELBOURNE      FAIR      57  47  69 SW6       30.07R                  
VERO BEACH     FAIR      55  50  83 CALM      30.07R                  
FT PIERCE      FAIR      53  50  89 CALM      30.07R                  
STUART         MOCLDY    61  50  67 CALM      30.09R                  

STATION/POSITION SKY/WX   TEMP    WIND        PRES    WAVE   SWELL
                          AIR SEA DIR/SP/G            HT/PER HT/PER
                          (F)     (DEG/KT/KT) (MB)    (FT/S) (FT/S)
28.5N   80.2W              67     270/ 14/ 19 1018.0R   3/ 8   2/ 8
28.9N   78.5W              71 77  260/ 12/ 17 1017.3R   7/ 8   5/ 8
TRIDENT PIER               62 76  260/  7/  9 1019.0R
28.4N   80.5W                 75                N/A     2/ 8
27.5N   80.2W                 75                N/A     2/ 8

$$
FLZ050-056-061-142-242-148-248-149-249-151-251-155-255-
160-260-211100-
WEST CENTRAL FLORIDA
  
CITY           SKY/WX    TMP DP  RH WIND       PRES   REMARKS
CRYSTAL RIVER  FAIR      50  46  87 CALM      30.06R                  
INVERNESS      FAIR      48  48 100 CALM      30.07R                  
BROOKSVILLE    FAIR      49  46  90 CALM      30.07R                  
CLEARWATER AIR FAIR      59  43  55 CALM      30.07R                  
ST PETE CLEARW FAIR      59  43  55 W3        30.08R                  
TAMPA INTL     FAIR      61  45  55 W5        30.08R                  
PLANT CITY     FAIR      54  52  94 CALM      30.10R                  
MACDILL AFB    FAIR      63  43  48 W6        30.08R                  
PETER O KNIGHT CLOUDY    61  50  67 CALM      30.09R                  
ST PETERSBURG    N/A    N/A N/A N/A MISG      30.06R                  
SARASOTA       FAIR      61  47  59 NW5       30.06R                  
VENICE         CLOUDY    68  50  52 NW13      30.08R                  

STATION/POSITION SKY/WX   TEMP    WIND        PRES    WAVE   SWELL
                          AIR SEA DIR/SP/G            HT/PER HT/PER
                          (F)     (DEG/KT/KT) (MB)    (FT/S) (FT/S)
27.3N   84.2W                 74                N/A     6/ 8
CLEARWATER BEACH           66 71  310/  8/ 12 1018.4R
MIDDLE TAMPA BAY           66     350/ 11/ 13 1018.4R
VENICE                     68 76  320/ 13/ 15 1018.4R

$$
FLZ066-069-070-075>078-162-262-165-265-211100-
SOUTHWEST FLORIDA AND KEYS
  
CITY           SKY/WX    TMP DP  RH WIND       PRES   REMARKS
FT MYERS       FAIR      61  56  83 CALM      30.07R                  
SOUTHWEST INTL FAIR      60  52  74 CALM      30.08R                  
NAPLES         MOCLDY    66  57  72 NE5       30.06R                  
MARCO ISLAND   MOCLDY    67  55  65 W6        30.07R                  
IMMOKALEE      CLOUDY    59  55  88 CALM      30.06R                  
MARATHON       FAIR      73  50  44 W9        30.07R                  
KEY WEST NAS   FAIR      70  54  56 CALM      30.08R                  
KEY WEST INTL  FAIR      68  56  65 CALM      30.08R                  

STATION/POSITION SKY/WX   TEMP    WIND        PRES    WAVE   SWELL
                          AIR SEA DIR/SP/G            HT/PER HT/PER
                          (F)     (DEG/KT/KT) (MB)    (FT/S) (FT/S)
NAPLES                     69 74   60/  6/  9 1018.0R
DRY TORTUGAS               72     320/  6/  7 1018.9R
SAND KEY                   72                 1018.5R
SOMBRERO KEY               72                 1017.8R

$$
FLZ067-068-071>074-168-172>174-211100-
SOUTHEAST FLORIDA 
  
CITY           SKY/WX    TMP DP  RH WIND       PRES   REMARKS
W PALM BEACH   FAIR      60  43  53 CALM      30.07R                  
FT LAUDER-EXEC FAIR      61  53  75 CALM      30.07R                  
FT LAUDERDALE  FAIR      62  54  74 CALM      30.07R                  
POMPANO BEACH  FAIR      62  52  69 CALM      30.07R                  
PEMBROKE PINES FAIR      59  51  75 CALM      30.09R                  
OPA LOCKA      FAIR      61  52  72 CALM      30.08R                  
MIAMI          FAIR      61  53  75 CALM      30.08R                  
WEST KENDALL   FAIR      60  55  83 CALM      30.07R                  
HOMESTEAD      FAIR      57  54  90 CALM      30.07R                  

STATION/POSITION SKY/WX   TEMP    WIND        PRES    WAVE   SWELL
                          AIR SEA DIR/SP/G            HT/PER HT/PER
                          (F)     (DEG/KT/KT) (MB)    (FT/S) (FT/S)
PORT EVERGLADES            65     220/  1/  2 1018.1
VIRGINIA KEY               67 79  310/  2/  2 1017.7R
LAKE WORTH                 64 76  240/  3/  4 1019.0R
SETTLEMENT POINT           72     280/ 12/ 14 1018.2R

$$